TimeCST,TemperatureF,Dew PointF,Humidity,Sea Level PressureIn,VisibilityMPH,Wind Direction,Wind SpeedMPH,Gust SpeedMPH,PrecipitationIn,Events,Conditions,WindDirDegrees,DateUTC
12:56 AM,25.2,24.1,96,30.52,10.0,Calm,Calm,-,N/A,,Clear,0,2013-11-30 06:56:00
1:56 AM,25.2,24.1,96,30.51,10.0,Calm,Calm,-,N/A,,Clear,0,2013-11-30 07:56:00
2:56 AM,24.1,24.1,100,30.50,9.0,Calm,Calm,-,N/A,,Clear,0,2013-11-30 08:56:00
3:56 AM,25.2,24.1,96,30.50,10.0,Calm,Calm,-,N/A,,Clear,0,2013-11-30 09:56:00
4:56 AM,24.1,23.0,96,30.51,10.0,Calm,Calm,-,N/A,,Clear,0,2013-11-30 10:56:00
5:56 AM,24.1,23.0,96,30.52,10.0,Calm,Calm,-,N/A,,Clear,0,2013-11-30 11:56:00
6:56 AM,24.1,22.1,92,30.53,10.0,Calm,Calm,-,N/A,,Clear,0,2013-11-30 12:56:00
7:56 AM,29.1,27.1,92,30.54,10.0,Calm,Calm,-,N/A,,Clear,0,2013-11-30 13:56:00
8:56 AM,38.8,31.1,74,30.54,10.0,Calm,Calm,-,N/A,,Clear,0,2013-11-30 14:56:00
9:56 AM,50.0,31.1,48,30.51,10.0,South,10.4,-,N/A,,Clear,190,2013-11-30 15:56:00
10:56 AM,52.9,30.0,42,30.48,10.0,SW,11.5,17.3,N/A,,Clear,220,2013-11-30 16:56:00
11:56 AM,54.9,28.0,36,30.44,10.0,SW,16.1,21.9,N/A,,Clear,220,2013-11-30 17:56:00
12:56 PM,55.9,27.1,33,30.40,10.0,SSW,11.5,19.6,N/A,,Clear,200,2013-11-30 18:56:00
1:56 PM,57.9,26.1,30,30.37,10.0,SSW,10.4,-,N/A,,Clear,200,2013-11-30 19:56:00
2:56 PM,57.9,24.1,27,30.35,10.0,SW,11.5,-,N/A,,Clear,220,2013-11-30 20:56:00
3:56 PM,54.9,25.2,32,30.34,10.0,SSW,10.4,-,N/A,,Clear,200,2013-11-30 21:56:00
4:56 PM,50.0,26.1,39,30.34,10.0,South,6.9,-,N/A,,Clear,190,2013-11-30 22:56:00
5:56 PM,45.9,27.1,48,30.34,10.0,South,4.6,-,N/A,,Clear,190,2013-11-30 23:56:00
6:56 PM,45.0,26.1,48,30.34,10.0,South,5.8,-,N/A,,Clear,170,2013-12-01 00:56:00
7:56 PM,43.9,26.1,50,30.33,10.0,South,5.8,-,N/A,,Clear,180,2013-12-01 01:56:00
8:56 PM,41.9,26.1,53,30.32,10.0,South,5.8,-,N/A,,Clear,180,2013-12-01 02:56:00
9:56 PM,41.0,26.1,55,30.31,10.0,South,5.8,-,N/A,,Clear,180,2013-12-01 03:56:00
10:56 PM,39.9,26.1,58,30.31,10.0,Calm,Calm,-,N/A,,Clear,0,2013-12-01 04:56:00
11:56 PM,38.8,26.1,60,30.30,10.0,Calm,Calm,-,N/A,,Clear,0,2013-12-01 05:56:00